Simultaneous Nadir Overpasses (SNOs) Predictions

Prediction of SNOs between AQUA and GOES-15 Satellite Orbit:

Table of predicted SNOs for the next 14.0 days since TLE Epoch: 11/30/2012
Index Date Time (AQUA) AQUA Lat,Lon GOES-15 Lat,Lon Distance(km) Time Diff (sec)
1 12/02/2012 10:31:45 -0.29,-134.17 -0.04,-135.24 122.30 80
2 12/02/2012 22:53:09 -0.85,-139.36 0.06,-135.23 469.60 80
3 12/04/2012 10:19:38 -0.90,-131.23 -0.04,-135.29 461.93 80
4 12/04/2012 22:41:03 -0.19,-136.43 0.06,-135.28 130.00 80
5 12/06/2012 22:28:58 0.45,-133.49 0.05,-135.33 208.78 80
6 12/07/2012 10:50:14 0.63,-138.66 -0.07,-135.36 375.12 80
7 12/09/2012 10:38:08 0.03,-135.72 -0.07,-135.39 37.63 80
8 12/11/2012 10:26:03 -0.61,-132.79 -0.06,-135.42 298.98 80
9 12/11/2012 22:47:29 -0.49,-137.99 0.07,-135.40 294.51 80
10 12/13/2012 22:35:24 0.12,-135.05 0.07,-135.42 40.92 80




NCC Satellite Simultaneous Nadir Overpasses (SNOs) Prediction Service
